Date,TemperatureHighF,TemperatureAvgF,TemperatureLowF,DewpointHighF,DewpointAvgF,DewpointLowF,HumidityHigh,HumidityAvg,HumidityLow,PressureMaxIn,PressureMinIn,WindSpeedMaxMPH,WindSpeedAvgMPH,GustSpeedMaxMPH,PrecipitationSumIn
2013-10-1,67,61,56,58,56,52,91,83,70,29.81,29.72,6,1,11,0.03
2013-10-2,73,64,56,63,58,52,91,82,69,29.90,29.80,6,2,11,0.00
2013-10-3,75,66,57,65,59,52,87,80,69,29.89,29.80,7,4,15,0.01
2013-10-4,70,66,63,63,61,59,91,84,74,29.98,29.84,6,3,19,0.13
2013-10-5,65,62,58,59,57,53,92,85,74,30.22,29.96,4,1,10,0.01
2013-10-6,66,59,54,58,54,51,93,83,59,30.29,30.21,3,0,7,0.01
2013-10-7,69,60,54,57,54,50,90,79,58,30.30,30.23,4,0,10,0.00
2013-10-8,67,59,53,56,53,50,93,81,61,30.29,30.24,5,1,10,0.00
2013-10-9,63,59,55,58,56,52,92,88,79,30.27,29.93,5,1,14,0.11
2013-10-10,57,50,45,53,45,40,88,82,68,29.96,0.00,9,4,24,0.08
2013-10-11,52,49,47,48,45,43,91,85,78,29.94,29.81,8,2,19,0.17
2013-10-12,54,48,43,46,43,40,93,85,70,30.06,29.91,6,2,13,0.02
2013-10-13,55,48,42,46,42,38,93,83,67,30.06,29.92,8,3,26,0.01
2013-10-14,60,53,48,54,49,44,95,87,79,29.94,29.80,8,4,18,0.39
2013-10-15,61,54,48,53,50,46,94,87,70,29.90,29.80,4,1,10,0.01
2013-10-16,58,50,43,57,48,40,98,93,91,29.99,29.81,8,2,18,0.24
2013-10-17,65,56,50,56,52,47,94,86,68,30.07,29.97,5,2,17,0.02
2013-10-18,60,53,48,55,51,46,95,91,80,30.06,29.84,7,2,16,0.01
2013-10-19,68,59,51,60,55,49,94,86,74,29.87,29.76,7,2,21,0.01
2013-10-20,66,60,57,60,57,53,93,89,77,29.95,29.83,9,3,29,0.21
2013-10-21,68,61,56,61,57,53,93,86,72,29.95,29.79,7,3,16,0.00
2013-10-22,75,64,60,61,59,56,92,82,59,29.79,29.54,8,4,21,0.05
2013-10-23,67,63,58,59,56,54,89,80,67,29.89,29.55,7,4,21,0.04
2013-10-24,64,58,55,56,54,52,94,87,74,30.02,29.83,9,3,17,0.01
2013-10-25,67,62,58,62,58,54,92,88,80,29.87,29.75,7,3,19,0.27
2013-10-26,68,63,60,63,60,57,94,90,80,29.91,29.80,6,3,16,0.02
2013-10-27,62,59,57,57,54,50,91,82,65,29.82,29.68,11,6,28,0.53
2013-10-28,63,59,51,56,51,46,92,77,57,29.82,29.47,13,7,34,0.09
2013-10-29,58,51,45,47,44,41,89,77,58,30.12,29.81,7,3,19,0.00
2013-10-30,58,48,41,46,43,38,93,82,64,30.28,30.12,6,2,11,0.00
2013-10-31,57,49,41,46,43,38,93,79,60,30.28,30.13,8,2,18,0.01